Hourly Data Report for November 25, 2017

All times are specified in Local Standard Time (LST). Add 1 hour to adjust for Daylight Saving Time where and when it is observed.

GIMLI CLIMATE
MANITOBA

50°38'00.000" N
97°03'00.000" W
230.10 m
5031042
71748
PGH

Download Data

Hourly Data (November 2017)
Hourly Data Report for November 25, 2017
Temp Definition
°C
Dew Point Temp Definition
°C
Rel Hum Definition
%
Wind Dir Definition
10's deg

Wind Spd Definition
km/h
Visibility Definition
km
Stn Press Definition
kPa
Hmdx Definition


Wind Chill Definition


Weather Definition


TIME
00:00 -12.8 -15.7 79 33 10   98.47   -19 LegendNANA
01:00 -13.9 -16.6 80 31 8   98.55   -19 LegendNANA
02:00 -14.8 -17.8 78 30 7   98.64   -20 LegendNANA
03:00 -15.1 -18.1 78 30 10   98.80   -21 LegendNANA
04:00 -16.2 -18.8 81 28 8   98.82   -22 LegendNANA
05:00 -17.0 -19.5 81 30 7   98.86   -22 LegendNANA
06:00 -17.7 -19.9 83 27 7   98.93   -23 LegendNANA
07:00 -18.1 -20.2 84 27 6   98.98   -23 LegendNANA
08:00 -18.1 -20.3 83 27 9   99.05   -24 LegendNANA
09:00 -17.1 -19.6 81 27 10   99.13   -24 LegendNANA
10:00 -14.6 -18.2 74 25 8   99.18   -20 LegendNANA
11:00 -11.6 -16.0 70 22 7   99.14   -16 LegendNANA
12:00 -10.0 -15.2 66 19 6   99.11   -14 LegendNANA
13:00 -9.1 -14.3 66 16 11   99.07   -15 LegendNANA
14:00 -9.4 -14.0 70 19 19   99.05   -17 LegendNANA
15:00 -9.5 -13.7 71 18 14   99.03   -16 LegendNANA
16:00 -9.5 -13.3 73 18 16   98.96   -16 LegendNANA
17:00 -9.5 -13.4 73 15 15   98.81   -16 LegendNANA
18:00 -9.6 -13.0 76 16 15   98.74   -16 LegendNANA
19:00 -9.5 -12.5 79 17 13   98.62   -16 LegendNANA
20:00 -8.9 -11.1 84 19 22   98.49   -17 LegendNANA
21:00 -8.3 -10.2 86 19 21   98.37   -16 LegendNANA
22:00 -7.2 -8.6 90 20 18   98.29   -14 LegendNANA
23:00 -6.3 -7.2 93 22 13   98.20   -12 LegendNANA

Notes on Data Quality.

Legend

  • E = Estimated
  • M = Missing
  • NA = Not Available
  • ‡ = Partner data that is not subject to review by the National Climate Archives
Date modified: